FW2584 Weather Reports


Display with metric or nautical units.
time (UTC)temp
F
wind
direction
speed
MPH
gust
MPH
rain 1hr
in
rain 24hr
in
rain mn
in
humidity
%
barometer
mb
20260505053036 58 0 0.0 0.0 0.00 0.00 0.00 80 1016.4
20260505052522 58 0 0.0 0.0 0.00 0.00 0.00 80 1016.4
20260505052022 58 0 0.0 0.0 0.00 0.00 0.00 79 1016.5
20260505051535 58 0 0.0 0.0 0.00 0.00 0.00 79 1016.5
20260505051024 58 0 0.0 0.0 0.00 0.00 0.00 78 1016.5
20260505050523 59 0 0.0 0.0 0.00 0.00 0.00 78 1016.5
20260505041538 60 0 0.0 0.0 0.00 0.00 0.00 76 1016.6
20260505041022 60 0 0.0 0.0 0.00 0.00 0.00 76 1016.5
20260505040522 60 0 0.0 0.0 0.00 0.00 0.00 75 1016.5
20260505040039 61 0 0.0 0.0 0.00 0.00 0.00 75 1016.5
20260505035526 61 0 0.0 0.0 0.00 0.00 0.00 75 1016.6
20260505035021 61 0 0.0 0.0 0.00 0.00 0.00 75 1016.5
20260505034535 61 0 0.0 0.0 0.00 0.00 0.00 74 1016.5
20260505034023 61 0 0.0 0.0 0.00 0.00 0.00 74 1016.5
20260505033523 62 0 0.0 0.0 0.00 0.00 0.00 74 1016.6
20260505033039 62 0 0.0 0.0 0.00 0.00 0.00 74 1016.6
20260505032523 62 0 0.0 0.0 0.00 0.00 0.00 74 1016.6
20260505032023 62 0 0.0 0.0 0.00 0.00 0.00 74 1016.5
20260505031551 62 0 0.0 0.0 0.00 0.00 0.00 73 1016.6
20260505031022 63 0 0.0 0.0 0.00 0.00 0.00 73 1016.5
20260505030522 63 0 0.0 0.0 0.00 0.00 0.00 73 1016.6
20260505030044 63 0 0.0 0.0 0.00 0.00 0.00 73 1016.6
20260505025521 63 0 0.0 0.0 0.00 0.00 0.00 72 1016.5
20260505025022 63 0 0.0 0.0 0.00 0.00 0.00 73 1016.4
20260505024545 64 0 0.0 0.0 0.00 0.00 0.00 73 1016.5
20260505024027 64 0 0.0 0.0 0.00 0.00 0.00 73 1016.5
20260505023524 64 0 0.0 0.0 0.00 0.00 0.00 71 1016.5
20260505023040 64 0 0.0 0.0 0.00 0.00 0.00 71 1016.5
20260505022522 65 0 0.0 0.0 0.00 0.00 0.00 71 1016.4
20260505022023 65 0 0.0 0.0 0.00 0.00 0.00 70 1016.3
20260505021536 65 0 0.0 0.0 0.00 0.00 0.00 70 1016.3
20260505021025 65 0 0.0 0.0 0.00 0.00 0.00 70 1016.3
20260505020522 65 0 0.0 0.0 0.00 0.00 0.00 70 1016.3
20260505020034 66 0 0.0 0.0 0.00 0.00 0.00 70 1016.2
20260505015519 66 0 0.0 1.0 0.00 0.00 0.00 69 1016.2
20260505015022 66 0 0.0 1.0 0.00 0.00 0.00 68 1016.2
20260505014559 67 0 0.0 1.0 0.00 0.00 0.00 68 1016.1
20260505014023 67 0 0.0 1.0 0.00 0.00 0.00 67 1015.9
20260505013522 67 0 0.0 3.0 0.00 0.00 0.00 66 1015.8
20260505013034 67 0 0.0 3.0 0.00 0.00 0.00 67 1015.8
20260505012520 67 0 0.0 1.0 0.00 0.00 0.00 67 1015.7
20260505012023 67 0 0.0 1.0 0.00 0.00 0.00 67 1015.7
20260505011540 67 0 0.0 0.0 0.00 0.00 0.00 66 1015.5
20260505011022 66 0 0.0 0.0 0.00 0.00 0.00 66 1015.5
20260505010522 67 0 0.0 0.0 0.00 0.00 0.00 65 1015.4
20260505010033 67 0 0.0 0.0 0.00 0.00 0.00 63 1015.3
20260505005523 67 0 0.0 0.0 0.00 0.00 0.00 60 1015.3
20260505005023 67 0 0.0 0.0 0.00 0.00 0.00 59 1015.1
20260505004535 67 0 0.0 0.0 0.00 0.00 0.00 58 1015.1
20260505004022 68 0 0.0 0.0 0.00 0.00 0.00 55 1015.1
20260505003525 68 0 0.0 0.0 0.00 0.00 0.00 54 1015.0
20260505003038 68 0 0.0 0.0 0.00 0.00 0.00 54 1015.0
20260505002522 69 0 0.0 0.0 0.00 0.00 0.00 53 1014.8
20260505002021 69 0 0.0 0.0 0.00 0.00 0.00 53 1014.8
20260505001542 69 0 0.0 0.0 0.00 0.00 0.00 53 1014.7
20260505001019 70 0 0.0 0.0 0.00 0.00 0.00 53 1014.7
20260505000521 70 0 0.0 0.0 0.00 0.00 0.00 52 1014.7
20260505000035 71 0 0.0 0.0 0.00 0.00 0.00 51 1014.7
20260504235520 71 0 0.0 0.0 0.00 0.00 0.00 50 1014.6
20260504235022 72 0 0.0 1.0 0.00 0.00 0.00 50 1014.5
20260504234533 72 0 0.0 1.0 0.00 0.00 0.00 50 1014.5
20260504234019 72 0 0.0 0.0 0.00 0.00 0.00 51 1014.5
20260504233523 73 0 0.0 0.0 0.00 0.00 0.00 49 1014.4
20260504233035 73 0 0.0 0.0 0.00 0.00 0.00 48 1014.3
20260504232523 74 0 0.0 0.0 0.00 0.00 0.00 48 1014.3
20260504232022 74 0 0.0 1.0 0.00 0.00 0.00 47 1014.2
20260504231540 75 0 0.0 1.0 0.00 0.00 0.00 47 1014.1
20260504231022 75 0 0.0 0.0 0.00 0.00 0.00 47 1014.1
20260504230522 75 0 0.0 1.0 0.00 0.00 0.00 45 1014.1
20260504230035 76 0 0.0 1.0 0.00 0.00 0.00 45 1014.1
20260504225523 76 0 0.0 1.0 0.00 0.00 0.00 44 1014.1
20260504225021 76 319 0.0 2.0 0.00 0.00 0.00 43 1014.1
20260504224538 76 0 0.0 2.0 0.00 0.00 0.00 41 1014.0
20260504224020 76 0 0.0 2.0 0.00 0.00 0.00 43 1014.1
20260504223520 76 0 0.0 2.0 0.00 0.00 0.00 42 1014.2
20260504223035 76 0 0.0 1.0 0.00 0.00 0.00 43 1014.2
20260504222520 77 0 0.0 1.0 0.00 0.00 0.00 41 1014.1
20260504222024 77 0 0.0 1.0 0.00 0.00 0.00 41 1014.1
20260504221535 77 0 0.0 4.0 0.00 0.00 0.00 42 1014.2
20260504221022 77 0 0.0 4.0 0.00 0.00 0.00 42 1014.2
20260504220522 77 117 0.0 1.0 0.00 0.00 0.00 43 1014.2
20260504220034 77 0 0.0 0.0 0.00 0.00 0.00 41 1014.1
20260504215522 78 0 0.0 3.0 0.00 0.00 0.00 41 1014.2
20260504215021 78 0 0.0 6.0 0.00 0.00 0.00 40 1014.2
20260504214536 79 0 0.0 6.0 0.00 0.00 0.00 41 1014.2
20260504214026 79 187 0.0 1.0 0.00 0.00 0.00 41 1014.2
20260504213522 78 0 0.0 3.0 0.00 0.00 0.00 41 1014.2
20260504213033 79 0 0.0 4.0 0.00 0.00 0.00 39 1014.2
20260504212523 79 0 0.0 4.0 0.00 0.00 0.00 40 1014.3
20260504212026 79 0 0.0 2.0 0.00 0.00 0.00 38 1014.3
20260504211534 79 0 0.0 1.0 0.00 0.00 0.00 39 1014.2
20260504211022 80 0 0.0 1.0 0.00 0.00 0.00 38 1014.1
20260504210522 80 0 0.0 1.0 0.00 0.00 0.00 39 1014.2
20260504210053 81 0 0.0 1.0 0.00 0.00 0.00 39 1014.3
20260504205523 81 0 0.0 3.0 0.00 0.00 0.00 40 1014.4
20260504205022 80 0 0.0 3.0 0.00 0.00 0.00 40 1014.4
20260504204553 80 0 0.0 5.0 0.00 0.00 0.00 41 1014.4
20260504204022 79 0 1.0 5.0 0.00 0.00 0.00 40 1014.5
20260504203522 80 265 0.0 6.0 0.00 0.00 0.00 40 1014.5
20260504203041 80 0 0.0 6.0 0.00 0.00 0.00 39 1014.5
20260504202522 80 0 0.0 1.0 0.00 0.00 0.00 38 1014.6
20260504202022 80 0 0.0 4.0 0.00 0.00 0.00 39 1014.7
20260504201535 80 0 0.0 4.0 0.00 0.00 0.00 40 1014.8
20260504201022 79 0 0.0 4.0 0.00 0.00 0.00 41 1014.7
20260504200522 79 0 0.0 4.0 0.00 0.00 0.00 40 1014.8
20260504200035 81 192 0.0 1.0 0.00 0.00 0.00 39 1014.8
20260504195523 81 0 0.0 5.0 0.00 0.00 0.00 39 1014.9
20260504195023 81 286 0.0 5.0 0.00 0.00 0.00 39 1015.0
20260504194539 80 0 0.0 4.0 0.00 0.00 0.00 39 1014.9
20260504194022 79 0 0.0 4.0 0.00 0.00 0.00 37 1015.0
20260504193525 80 127 0.0 6.0 0.00 0.00 0.00 41 1015.1
20260504193039 80 0 0.0 6.0 0.00 0.00 0.00 39 1015.1
20260504192523 78 0 0.0 4.0 0.00 0.00 0.00 42 1015.2
20260504192022 79 0 0.0 4.0 0.00 0.00 0.00 41 1015.1
20260504191538 79 0 0.0 4.0 0.00 0.00 0.00 40 1015.2
20260504191025 80 0 0.0 4.0 0.00 0.00 0.00 40 1015.2
20260504190538 80 0 0.0 4.0 0.00 0.00 0.00 40 1015.3
20260504190035 78 0 0.0 4.0 0.00 0.00 0.00 39 1015.5
20260504185521 78 0 0.0 4.0 0.00 0.00 0.00 41 1015.4
20260504185022 79 0 0.0 4.0 0.00 0.00 0.00 38 1015.6
20260504184535 79 0 0.0 4.0 0.00 0.00 0.00 41 1015.7
20260504184024 79 0 0.0 4.0 0.00 0.00 0.00 40 1015.7
20260504183524 79 0 0.0 4.0 0.00 0.00 0.00 43 1015.8
20260504183036 78 0 0.0 5.0 0.00 0.00 0.00 41 1016.0
20260504182525 78 0 0.0 5.0 0.00 0.00 0.00 41 1016.1
20260504182021 78 251 0.0 5.0 0.00 0.00 0.00 40 1016.2
20260504181540 77 0 0.0 1.0 0.00 0.00 0.00 42 1016.1
20260504181022 78 0 0.0 4.0 0.00 0.00 0.00 44 1016.2
20260504180521 77 0 0.0 4.0 0.00 0.00 0.00 44 1016.2
20260504180039 77 121 1.0 4.0 0.00 0.00 0.00 40 1016.3
20260504175522 79 0 0.0 5.0 0.00 0.00 0.00 41 1016.4
20260504175020 79 301 0.0 7.0 0.00 0.00 0.00 41 1016.2
20260504174534 78 0 0.0 7.0 0.00 0.00 0.00 40 1016.4
20260504174020 77 0 0.0 6.0 0.00 0.00 0.00 42 1016.5
20260504173521 77 0 0.0 5.0 0.00 0.00 0.00 41 1016.5
20260504173039 77 0 0.0 5.0 0.00 0.00 0.00 42 1016.6
20260504172523 77 0 0.0 4.0 0.00 0.00 0.00 42 1016.6
20260504172023 77 0 0.0 4.0 0.00 0.00 0.00 42 1016.6
20260504171540 77 0 0.0 4.0 0.00 0.00 0.00 42 1016.8
20260504171027 77 0 0.0 5.0 0.00 0.00 0.00 46 1016.7
20260504170524 77 0 1.0 5.0 0.00 0.00 0.00 44 1016.8
20260504151023 72 0 0.0 3.0 0.00 0.00 0.00 55 1017.8
20260504150521 71 0 0.0 4.0 0.00 0.00 0.00 53 1017.9
20260504141023 65 261 0.0 2.0 0.00 0.00 0.00 71 1017.9
20260504140521 64 0 0.0 1.0 0.00 0.00 0.00 71 1017.9
20260504130525 58 0 0.0 1.0 0.00 0.00 0.00 86 1017.9
20260504110521 47 0 0.0 0.0 0.00 0.00 0.00 97 1017.8
20260504100523 47 0 0.0 0.0 0.00 0.00 0.00 96 1017.9
20260504081535 50 0 0.0 0.0 0.00 0.00 0.00 95 1017.7
20260504081022 50 0 0.0 0.0 0.00 0.00 0.00 95 1017.8
20260504080522 50 0 0.0 0.0 0.00 0.00 0.00 95 1017.8